Location: North Bay
(46.3091°N, 79.4608°W)
Time: 10:33:31
(UTC-05:00)

N. Korean satellite - Pass Details

Date: 21 October 2019
Orbit: 456 x 506 km, 97.2° (Epoch: 12 November)

Event Time Altitude Azimuth Distance (km) Brightness Sun altitude
Rises 18:49:42 0° 186° (S) 2,462 10.4 -5.6°
Reaches altitude 10° 18:51:51 10° 196° (SSW) 1,596 9.5 -6.0°
Maximum altitude 18:55:00 34° 263° (W) 778 8.5 -6.6°
Drops below altitude 10° 18:58:12 10° 330° (NNW) 1,622 9.5 -7.1°
Sets 19:00:24 0° 340° (NNW) 2,510 10.4 -7.5°
